Showing default

RUNNER-1 (TYVAK-1005), 56953

Orbit data source: Space-Track

RUNNER-1 (TYVAK-1005), 56953 is an American payload satellite in SSO that was launched on Mon, 12 Jun 2023 UTC via an FALCON 9 launch vehicle from the Air Force Western Test Range (AFWTR). Payload-class satellites include a variety of spacecraft equipped with specific instruments for various scientific and technological missions. These include communications satellites like Starlink; space stations such as the ISS; scientific satellites like the Hubble; Earth observation satellites from companies like Planet Labs, Umbra, and HawkEye 360; GPS; miniature CubeSats for education and research; and military/defense satellites.

Loading next visibility...
Identifier
56953, 2023-084X
Orbit
SSO
Country
Flag of USUS
Related business
Manufacturer
TYVAK/IMAG
Mission
Operational Commercial Imaging
Bus & Motor
RUNNER, Unknown motor
Mass
86 kg wet, 86 kg dry
Launch date (UTC)
2023-06-12 (2 years ago)
Launch vehicle
FALCON 9
Launch site
Air Force Western Test Range (AFWTR)
Object type
Payload
Rocket body
Debris
Shape & HBR
Box, 0.4 m
Radar Cross Section
0.619 m², Medium (>0.1 m² and < 1m²)

Expand to show TLE details & history
Last TLE update: 12 hours ago

TLE from 12 hours ago
0 RUNNER-1 (TYVAK-1005)
1 56953U 23084X   25286.62629509  .00015193  00000-0  50173-3 0  9995
2 56953  97.5934  56.0336 0009828 111.2263 249.0029 15.31449869129786
Epoch: 2025-10-13T15:01Z
TLE epoch observation values (Epoch: 2025-10-13T15:01:51.895Z)
Latitude
0.00001°
Longitude
168.141°
Altitude
477.005 km
Speed
7.626 km/s
True Right ascension
03h 44m 08s
True Declination
0° 00' 00"
Sunlit
Object was in full shadow at epoch
Visualization orbit readout
Latitude
Unknown
Longitude
Unknown
Altitude
Unknown
Speed
Unknown
Apparent Right ascension
Unknown
Apparent Declination
Unknown
Sunlit
N/A
Visualization observer readout
Local Sidereal Time
21:34:44
Azimuth
Unknown
Elevation
Unknown
Doppler factor
Unknown
Orbital elements
Apogee altitude
475.173 km
Perigee altitude
461.716 km
Semi-major axis
6,846.581 km
Eccentricity
0.00098
Inclination
97.5934°
RAAN
56.0336°
Arg. of periapsis
111.2263°
True anomaly
248.8978°
Mean anomaly
249.0029°
Eccentric anomaly
248.95035°
Mean motion
3.83118 °/min
Orbital period
93.97 mins
BSTAR
0.00050173
Loading maneuver chart data...
Computing Atmospheric mass density...

Documentation

Showing up to 5 results
|